Location: Utica Cemetery
(38.6461°N, 100.1582°W)
Time: 03:35:30
(UTC+00:00)

Daily predictions for brighter satellites

Satellite Brightness Start Highest point End
(mag) Time Altitude Azimuth Time Altitude Azimuth Time Altitude Azimuth
Cosmos 1544 Rocket 3.7 01:35:12 10° S 01:39:28 52° E 01:43:46 10° NNE
Cosmos 2278 3.8 01:34:34 10° NNW 01:40:14 61° ENE 01:45:50 10° SE
OBJECT-B 2.7 01:42:18 10° ESE 01:44:09 15° ENE 01:46:00 10° NE
CZ-2C R/B 3.1 01:42:25 10° WSW 01:45:01 18° SSW 01:47:28 10° SSE
Cosmos 1626 Rocket 4.4 01:41:19 10° NNE 01:45:14 31° ENE 01:49:09 10° SE
Cosmos 2233 Rocket 4.1 01:43:24 10° S 01:49:38 90° ESE 01:55:59 10° N
SL-08 RB Rocket 3.7 01:45:52 10° SSE 01:50:32 77° ENE 01:55:12 10° N
BREEZE-M DEB (TANK) 3.6 01:49:45 10° NNW 01:51:35 18° NNE 01:53:34 10° ENE
SME Rocket 3.1 01:47:54 10° NNE 01:51:35 54° ESE 01:55:57 10° S
ATLAS 2AS CENTAUR R/B 4.3 01:48:41 10° SE 01:52:27 14° ESE 01:56:14 10° ENE
SAR-Lupe-4 3.5 01:49:28 10° NNE 01:53:05 87° ESE 01:56:40 10° SSW
Meteor 1-21 Rocket 4.2 01:48:41 10° N 01:54:17 75° E 01:59:48 10° SSE
Cosmos 1455 Rocket 3.7 01:50:01 10° SSW 01:54:25 62° W 01:58:50 10° N
HJ-1C 3.8 01:51:24 10° S 01:54:38 64° W 01:57:53 10° NNW
Cosmos 1892 Rocket 4.3 01:53:41 10° NNW 01:57:57 56° W 02:02:11 10° S
Cosmos 1048 Rocket 4.1 01:53:32 10° S 01:58:37 55° ESE 02:03:48 10° NNE
DMSP B5D2-2 4.0 01:57:06 10° NNE 02:02:21 75° ESE 02:07:35 10° S
USA 32 4.2 01:58:22 10° SSE 02:03:23 49° E 02:08:25 10° NNE
Cosmos 1420 Rocket 4.1 02:00:18 10° NNW 02:05:30 83° WSW 02:10:40 10° SSE
Cosmos 1689 Rocket 3.9 02:03:26 10° N 02:06:04 34° WNW 02:08:41 10° SW
Helios 1A Rocket 2.9 02:02:43 10° SSE 02:06:45 87° W 02:10:50 10° NNW
Cosmos 2360 Rocket 4.0 02:05:06 10° NNE 02:08:26 16° NE 02:11:11 11° E
BREEZE-M DEB (TANK) 3.0 02:07:42 10° SW 02:10:48 82° NW 02:19:12 10° NE
CSL-04 Rocket 3.8 02:06:49 10° S 02:12:08 75° WSW 02:17:27 10° NNW
Cosmos 1908 3.8 02:08:58 10° SSW 02:12:46 60° W 02:16:33 10° N
CZ-4 R/B 3.9 02:10:15 10° SSW 02:13:42 25° W 02:17:13 10° NW
OAO 2 Rocket 3.8 02:09:53 10° W 02:14:45 49° S 02:18:17 18° ESE
SL-16 R/B 2.9 02:09:45 10° N 02:14:59 37° ENE 02:18:35 18° ESE
ARGOS 4.3 02:09:51 10° S 02:15:01 46° W 02:20:12 10° NNW
Cosmos 1452 Rocket 3.5 02:10:34 10° NNW 02:15:50 66° ENE 02:20:51 11° SSE
Lacrosse 5 4.2 02:15:41 10° WNW 02:19:22 20° WSW 02:23:01 10° SSW
Resurs 1-3 4.4 02:20:46 21° ESE 02:22:54 32° ENE 02:26:49 10° N
SL-27 R/B 3.4 02:23:18 26° ESE 02:23:43 27° E 02:26:44 10° NE
USA 238 DEB 4.4 02:18:02 10° NNW 02:24:57 44° NE 02:29:46 20° ESE
USA 238 4.4 02:18:08 10° NNW 02:25:03 43° NE 02:29:51 20° ESE
Cosmos 2034 Rocket 4.3 02:20:36 10° SSE 02:26:21 43° E 02:32:10 10° NNE
Cosmos 1980 Rocket 3.1 02:21:03 10° NW 02:26:28 48° WSW 02:31:49 10° S
Cosmos 1953 4.4 02:23:47 10° SW 02:27:22 30° WNW 02:30:59 10° NNW
BREEZE-M DEB (TANK) 4.5 02:25:08 10° NW 02:28:14 46° NE 02:32:26 20° E
USA 186 2.0 02:25:18 10° S 02:28:35 73° W 02:31:52 10° NNW
CZ-4C R/B 2.0 02:24:25 10° S 02:28:52 49° ESE 02:34:07 10° NE
MetOp-A 4.2 02:24:45 10° SSE 02:30:06 85° WSW 02:35:29 10° NNW
CZ-2C R/B 4.4 02:27:23 10° N 02:32:00 34° WNW 02:36:38 10° SW
NOSS 3-2 (A) 4.2 02:25:01 10° NNW 02:32:38 61° NE 02:38:28 22° SE
Cosmos 1328 3.8 02:29:31 10° N 02:33:34 87° WSW 02:37:10 12° S
Cosmos 220 Rocket 3.9 02:30:16 10° NNW 02:34:43 82° ENE 02:37:35 21° SSE
Meteor 1-11 4.2 02:30:35 10° N 02:36:24 71° E 02:41:16 15° SSE
Lacrosse 5 rocket 1.1 02:33:47 10° SW 02:37:43 76° SE 02:41:54 10° NE
Cosmos 2228 3.2 02:36:04 20° SSE 02:38:49 47° E 02:43:01 10° NNE
USA 276 2.1 02:35:46 10° WNW 02:38:55 74° SW 02:39:38 49° SSE
Cosmos 1464 Rocket 3.9 02:32:58 10° S 02:39:18 81° E 02:45:38 10° N
IRS-1A Rocket 4.2 02:35:31 18° SSE 02:39:42 67° ENE 02:45:14 10° N
Cosmos 1441 Rocket 3.2 02:41:11 10° N 02:45:05 60° E 02:46:12 41° SE
USA 215 3.5 02:42:19 25° ESE 02:46:09 59° NE 02:52:33 10° NW
FALCON 9 R/B 4.4 02:38:52 10° W 02:46:57 76° S 03:16:36 15° E
Cosmos 1892 4.3 02:45:24 10° NNE 02:47:25 20° NE 02:47:25 20° NE
Cosmos 2333 Rocket 4.0 02:45:15 10° NNE 02:48:34 15° NE 02:49:48 15° ENE
SJ-6B 3.1 02:46:18 18° S 02:48:55 62° W 02:52:36 10° NNW
MOS 1 4.2 02:45:01 19° SSE 02:49:11 80° ENE 02:54:50 10° NNW
Ariane Rocket 2.9 02:46:20 22° SSE 02:49:35 80° ENE 02:54:40 10° N
Cosmos 1825 Rocket 3.8 02:47:00 10° N 02:51:13 46° E 02:51:51 43° ESE
Nadezhda 4 Rocket 4.0 02:45:33 10° N 02:51:48 60° E 02:55:11 27° SSE
OAO 3 Copernicus 4.4 02:47:08 10° WSW 02:52:08 58° S 02:53:40 40° ESE
ATLAS 5 CENTAUR R/B 2.0 02:52:09 10° SW 02:55:57 54° NW 03:00:10 10° NNE
Cosmos 1758 Rocket 3.4 02:51:36 10° N 02:56:03 80° E 02:57:45 37° SSE
CENTAUR R/B 3.4 02:48:48 10° NNW 02:57:00 62° NE 03:01:33 31° ESE
SEDSat Delta rocket 4.3 02:52:14 10° WSW 02:58:16 42° S 02:59:44 36° SE
Cosmos 1602 Rocket 4.4 02:56:14 10° NNW 03:00:26 49° W 03:04:00 14° SSW
Lacrosse 4 Rocket 2.5 02:59:25 10° NW 03:03:28 40° WSW 03:05:29 24° SSW
Atlas Centaur 2 3.4 02:55:37 10° WSW 03:03:42 48° S 03:06:42 34° SE
Cosmos 2322 Rocket 2.1 03:00:54 10° NNW 03:06:38 76° ENE 03:08:30 44° SE
Cosmos 1634 Rocket 4.3 03:08:23 41° ESE 03:09:16 43° E 03:15:09 10° NNE
Cosmos 2026 Rocket 4.5 03:04:26 10° N 03:10:01 37° ENE 03:10:24 37° E
Cosmos 1300 4.3 03:09:27 10° SW 03:12:55 34° WNW 03:16:25 10° NNW
BREEZE M DEB (TANK) 3.5 03:00:07 10° SW 03:13:57 89° NW 03:16:08 31° NE
Terra 4.2 03:15:52 11° NE 03:15:52 11° NE 03:16:12 10° NE
OBJECT-B 3.0 03:14:47 17° SW 03:16:08 23° W 03:18:45 10° NW
Cosmos 1110 Rocket 4.1 03:12:53 10° NNW 03:18:02 71° WSW 03:19:38 44° S
Cosmos 1184 Rocket 4.3 03:19:28 10° NNW 03:22:12 34° W 03:22:12 34° W
BREEZE-M DEB (TANK) 4.4 03:21:01 10° W 03:24:50 46° N 03:37:10 10° ENE
Cosmos 1606 Rocket 4.1 03:24:02 30° SSW 03:25:59 57° W 03:30:19 10° N
COSMOS 2428 4.2 03:23:23 10° N 03:27:35 22° NE 03:27:35 22° NE
NOSS 3-4 (A) 3.2 03:22:58 10° SW 03:28:43 85° WNW 03:34:50 10° NNE
USA 245 4.5 03:29:39 42° NE 03:29:39 42° NE 03:33:01 10° N
NOSS 3-4 (C) 3.2 03:23:01 10° SSW 03:28:48 86° WNW 03:34:58 10° NNE
Resurs 01 Rocket 1.6 03:28:52 80° WSW 03:28:55 80° W 03:33:23 10° NNW
SPOT 1/Viking Rocket 3.9 03:29:51 51° ENE 03:29:51 51° ENE 03:34:34 10° N
Cosmos 1331 Rocket 4.3 03:24:24 10° NNW 03:29:31 62° WSW 03:30:44 48° SSW
SPOT 3 Rocket 3.5 03:32:33 65° S 03:33:18 81° WSW 03:38:32 10° NNW
Cosmos 1833 4.2 03:29:53 10° SSW 03:35:30 79° WNW 03:41:10 10° NNE
NOSS 3-2 (C) 4.0 03:29:51 10° NNW 03:37:41 89° ENE 03:40:20 50° SSE
BREEZE-M (TANK) 4.4 03:17:34 10° WNW 03:37:57 55° NNE 03:39:54 40° ENE
Cosmos 1726 Rocket 4.3 03:39:01 47° WSW 03:39:40 51° W 03:43:58 10° N
ATLAS 2AS CENTAUR R/B 2.9 03:34:25 10° SSW 03:42:17 77° ESE 03:50:09 10° NE
MetOp-B 4.0 03:44:45 86° SW 03:44:48 87° WSW 03:50:13 10° NNW
Cosmos 2058 Rocket 4.0 03:46:32 42° N 03:46:32 42° N 03:49:29 10° N
Landsat 7 4.0 03:46:58 68° WNW 03:46:58 68° WNW 03:51:17 10° NNW
Cosmos 2237 4.3 03:45:39 10° NNW 03:51:18 67° WSW 03:51:35 66° SW
Cosmos 2360 Rocket 2.2 03:47:26 10° NNW 03:52:58 79° W 03:52:58 79° W
ERS-1 Rocket 4.2 03:56:11 31° NNE 03:56:11 31° NNE 03:59:11 10° N
Cosmos 2195 Rocket 4.5 03:49:16 10° N 03:55:33 78° W 03:56:15 69° SSW
Meteor 2-10 Rocket 4.5 03:56:27 33° WSW 03:58:06 44° WNW 04:03:06 10° N
SL-16 R/B 3.7 03:54:04 10° NW 03:58:54 29° WSW 04:00:29 25° SW
Spot 2 Rocket 4.1 04:01:28 51° N 04:01:28 51° N 04:05:18 10° N
Cosmos 2098 Rocket 4.5 03:55:11 10° NNW 04:01:45 67° W 04:03:34 50° SSW
Cosmos 1092 Rocket 4.2 03:55:37 10° NNW 04:01:49 64° W 04:02:42 58° SW
Cosmos 2219 Rocket 3.0 04:09:25 10° NNW 04:13:31 44° NNE 04:13:31 44° NNE
Lacrosse 5 rocket 4.1 04:14:30 10° WNW 04:17:21 18° NNW 04:20:14 10° NNE
CZ-4C R/B 4.2 04:13:41 10° W 04:17:43 24° NW 04:22:22 10° NNE
BREEZE M DEB (TANK) 4.3 04:15:06 10° NW 04:27:08 44° WSW 04:27:08 44° WSW
USA 215 4.1 04:29:40 37° WSW 04:29:40 37° WSW 04:35:17 10° WNW
Cosmos 2237 Rocket 4.1 04:25:14 10° N 04:27:54 21° NNE 04:27:54 21° NNE
Cosmos 2333 Rocket 3.1 04:27:48 10° NNW 04:31:49 47° NNW 04:31:49 47° NNW
Cosmos 2344 3.7 04:28:46 10° SW 04:36:18 65° NW 04:43:59 10° NNE
ATLAS 3B R/B 3.3 04:39:38 10° NNW 04:45:24 51° NNE 04:45:24 51° NNE
CENTAUR R/B 4.2 04:40:06 10° NW 04:47:33 35° WSW 04:48:46 34° SW
Terra 4.1 04:54:44 22° NNW 04:54:44 22° NNW 04:56:24 10° NNW
Atlas Centaur 2 4.4 04:45:31 10° W 04:49:17 24° WSW 04:49:17 24° WSW
COSMOS 2428 4.4 05:06:47 10° NNW 05:09:37 29° NW 05:09:37 29° NW
SL-16 R/B 4.5 05:13:38 10° N 05:15:30 17° NNE 05:15:30 17° NNE
CZ-2D R/B 3.9 08:10:42 10° NNE 08:13:15 29° NNE 08:13:15 29° NNE
SL-16 R/B 3.6 08:23:36 39° N 08:23:36 39° N 08:27:23 10° N
Cosmos 2263 Rocket 4.3 08:24:56 18° NNW 08:24:56 18° NNW 08:26:56 10° N
USA 234 4.0 08:21:36 10° NE 08:26:58 46° NNW 08:26:58 46° NNW
Resurs 1-4 Rocket 3.8 08:29:12 10° N 08:31:34 27° N 08:31:34 27° N
Cosmos 1844 Rocket 3.9 08:41:51 36° NNE 08:41:51 36° NNE 08:45:06 10° NNE
ADEOS Rocket 4.0 08:53:40 34° ESE 08:55:35 43° ENE 09:01:41 10° N
Cosmos 2278 Rocket 4.0 08:56:47 22° ESE 08:57:25 22° E 09:01:39 10° NE
ARIANE 5 R/B 3.9 09:03:13 10° NE 09:07:53 32° E 09:08:14 32° ESE
Cosmos 1844 4.5 09:14:58 45° NNW 09:14:58 45° NNW 09:19:20 10° NNE
IRS-1D 4.3 09:10:21 10° N 09:13:53 45° N 09:13:53 45° N
SJ 16-02 3.0 09:16:52 31° ENE 09:16:52 31° ENE 09:20:00 10° NE
Cosmos 2366 rocket 3.9 09:09:51 10° N 09:16:03 76° E 09:16:05 76° E
Cosmos 864 Rocket 4.5 09:11:05 10° N 09:17:23 76° E 09:17:43 73° ESE
Lacrosse 5 rocket 3.6 09:16:11 10° NNW 09:20:02 27° NE 09:23:57 10° E
Cosmos 1959 Rocket 4.4 09:14:50 10° N 09:21:14 84° E 09:21:30 81° SE
Gbstr 26 Del rocket 4.3 09:25:52 46° ESE 09:25:52 46° ESE 09:30:27 10° ENE
ADEOS II 3.0 09:21:31 10° N 09:25:09 40° NNW 09:25:09 40° NNW
MSX 4.3 09:21:59 10° NNE 09:27:37 56° E 09:28:37 49° SE
IRS-1C 4.3 09:22:57 10° NNE 09:28:16 66° ESE 09:28:20 66° ESE
USA 308 4.4 09:32:26 32° N 09:32:26 32° N 09:35:13 10° NE
Cosmos 773 Rocket 4.4 09:32:56 10° NNW 09:37:03 55° NNW 09:37:03 55° NNW
SL-08 R/B 4.2 09:36:21 27° SE 09:38:43 51° ENE 09:43:29 10° N
Cosmos 1238 Rocket 3.9 09:33:22 10° NNW 09:38:59 66° WNW 09:38:59 66° WNW
Okean 1-7 4.1 09:42:16 38° ESE 09:42:50 40° E 09:46:51 10° NNE
Cosmos 2181 Rocket 4.4 09:43:39 47° WNW 09:43:39 47° WNW 09:49:23 10° N
CZ-2D R/B 4.2 09:52:46 10° NNW 09:54:35 14° NW 09:54:35 14° NW
Cosmos 1908 Rocket 4.0 09:51:26 10° N 09:55:48 60° E 09:57:17 38° SE
Hubble Space Telescope 3.3 10:01:34 11° SE 10:01:34 11° SE 10:01:51 10° SE
Gblst 52 Del rocket 4.2 09:57:51 60° WSW 09:58:59 85° NW 10:04:38 10° NE
CZ-2D R/B 3.3 09:59:34 10° NNE 10:03:38 81° ESE 10:03:44 80° SE
ATLAS 5 CENTAUR R/B 4.4 09:58:55 10° NNW 10:03:47 28° NE 10:09:16 10° ESE
CZ-2C R/B 3.9 10:03:08 10° NNE 10:06:39 39° E 10:07:54 30° SE
IDEFIX/ARIANE 42P 2.9 10:02:19 10° N 10:07:15 45° WNW 10:07:24 45° WNW
IRS-P3 4.3 10:03:15 10° N 10:08:26 52° WNW 10:09:03 49° W
Cosmos 1703 Rocket 3.4 10:16:16 62° SW 10:16:54 75° W 10:21:15 10° N
Cosmos 2082 Rocket 3.8 10:14:49 10° N 10:19:59 36° ENE 10:25:07 10° SE
Okean 3 4.1 10:18:54 20° SSE 10:21:43 56° E 10:25:56 10° NNE
Cosmos 1782 Rocket 3.9 10:18:46 10° N 10:23:12 65° E 10:27:38 10° SSE
Cosmos 1934 Rocket 4.4 10:18:30 10° N 10:24:49 64° E 10:31:00 10° SSE
Cosmos 2242 Rocket 3.7 10:24:50 49° WSW 10:25:26 54° W 10:29:47 10° N
ERBS 2.8 10:26:45 45° NNW 10:26:45 45° NNW 10:29:47 10° NNE
BREEZE-M DEB (TANK) 4.4 10:24:18 21° WNW 10:28:09 62° SW 10:50:57 10° SE
Cosmos 923 Rocket 4.4 10:25:33 10° NNW 10:30:44 66° ENE 10:35:55 10° SSE
Milstar 3 4.2 10:26:14 25° SW 10:30:53 42° SSE 10:43:50 10° E
FENGYUN 3A 4.5 10:29:09 10° NNE 10:34:24 51° E 10:39:36 10° S
Cosmos 1378 3.2 10:32:28 26° S 10:34:25 75° E 10:38:06 10° N
COSMOS 2406 3.1 10:30:22 10° NNW 10:36:04 82° WSW 10:41:42 10° SSE
Spot 4 Rocket 4.1 10:34:14 10° N 10:39:17 55° WNW 10:42:00 26° SW
Cosmos 2278 Rocket 2.5 10:38:39 30° WSW 10:41:05 48° WNW 10:46:35 10° NNE
ADEOS Rocket 3.8 10:40:36 26° WSW 10:41:18 27° W 10:46:36 10° NW
Cosmos 1975 4.2 10:38:45 10° NNW 10:41:07 23° WNW 10:41:07 23° WNW
DELTA 2 R/B (1) 4.1 10:39:41 25° SW 10:42:32 47° SSE 10:47:53 10° E
USA 81 4.0 10:39:17 10° N 10:44:35 87° E 10:49:52 10° S
ARIANE 5 R/B 3.5 10:42:22 10° N 10:46:51 30° WNW 10:48:34 24° W
PSLV R/B 3.6 10:42:41 10° NNE 10:46:58 75° ESE 10:51:10 10° S
Cosmos 1833 Rocket 2.6 10:41:48 10° NNW 10:47:25 69° WSW 10:53:00 10° S
CREW DRAGON DEMO-1 DEB 2.9 10:53:42 34° SSW 10:54:35 55° SE 10:57:17 10° ENE
SJ 16-02 2.8 10:53:52 19° WNW 10:54:39 20° WNW 10:57:55 10° NNW
Cosmos 1898 Rocket 3.4 10:52:00 16° SSW 10:56:08 70° WNW 11:01:24 10° NNE
H-2A R/B 4.4 10:54:09 10° SE 10:57:36 26° ENE 11:01:07 10° NNE
Cosmos 1805 4.2 10:54:30 10° N 10:58:18 50° E 11:02:07 10° SSE
Lacrosse 5 rocket 1.7 10:54:59 10° NW 10:59:25 49° SW 11:03:51 10° SSE
Cosmos 858 Rocket 4.4 10:57:43 10° SSW 11:02:54 89° WNW 11:08:07 10° NNE
CZ-2C R/B 2.6 10:58:28 10° N 11:02:57 47° WNW 11:06:57 13° SW
Cosmos 2297 4.1 10:58:32 10° S 11:04:11 65° ESE 11:09:52 10° NNE
Cosmos 1937 Rocket 3.4 10:59:57 10° SSW 11:05:06 81° WNW 11:10:16 10° NNE
NOSS 3-3 (A) 4.4 11:03:51 18° WSW 11:07:47 42° NW 11:13:54 10° NNE
Cosmos 990 Rocket 4.4 11:04:07 17° SW 11:07:48 44° WNW 11:12:46 10° N
NOSS 3-3 (C) 4.4 11:03:57 18° WSW 11:07:53 43° NW 11:14:01 10° NNE
deb Kosmos-1763 4.2 11:04:49 10° NNW 11:08:10 42° WSW 11:11:31 10° S
Cosmos 2112 Rocket 4.0 11:05:36 10° NNW 11:10:55 84° WSW 11:16:14 10° SSE
Meteor 1-15 Rocket 4.3 11:05:31 10° N 11:11:06 82° E 11:16:41 10° S
Gbstr 26 Del rocket 4.2 11:08:23 16° W 11:12:33 41° NNW 11:17:01 10° NE
GP-B 3.7 11:08:54 10° N 11:13:19 62° E 11:17:41 10° S
BREEZE-M DEB (TANK) 1.6 11:10:47 10° WNW 11:13:49 78° SW 11:15:59 10° SE
Cosmos 2369 Rocket 4.2 11:10:03 10° SSE 11:14:43 28° ESE 11:19:24 10° NE
BREEZE-M DEB (TANK) 3.9 11:15:36 10° NNW 11:17:44 38° NE 11:22:08 10° ESE
X-37B 2.9 11:19:55 10° S 11:22:15 19° SE 11:24:35 10° E
COSMO-SKYMED 1 4.4 11:22:47 10° SE 11:26:45 36° ENE 11:30:44 10° N
Cosmos 1943 Rocket 2.5 11:21:14 10° SSW 11:26:52 71° ESE 11:32:31 10° NNE
Cosmos 1378 Rocket 4.1 11:23:28 10° S 11:27:52 64° E 11:32:16 10° NNE
Cosmos 2221 Rocket 3.8 11:24:50 10° SSW 11:29:09 50° W 11:33:31 10° N
Cosmos 2084 4.0 11:26:41 10° SSW 11:30:43 56° ESE 11:34:51 10° NE
Cosmos 1842 3.6 11:27:35 10° S 11:31:28 70° E 11:35:20 10° NNE
Cosmos 1733 3.1 11:27:51 10° N 11:31:39 74° W 11:35:23 10° S
METEOR-M 4.2 11:27:55 10° N 11:33:13 65° WNW 11:38:30 10° SSW
Cosmos 2151 Rocket 3.6 11:29:19 10° N 11:33:49 83° W 11:38:20 10° S
ALOS 2.7 11:29:41 10° N 11:34:05 42° WNW 11:38:27 10° SW
Cosmos 1674 Rocket 3.5 11:31:08 10° S 11:35:27 85° WNW 11:39:49 10° N
Hubble Space Telescope 3.0 11:38:28 10° SSW 11:39:24 11° SSW 11:40:21 10° S
Meteor 1-31 Rocket 2.9 11:36:10 10° NNE 11:39:58 81° ESE 11:43:47 10° S
Okean 2 Rocket 3.3 11:36:14 10° NNW 11:40:34 51° W 11:44:51 10° SSW
CZ-4C R/B 3.2 11:37:29 10° S 11:40:59 48° W 11:44:26 10° NNW
CZ-4C R/B 3.2 11:34:33 10° NNW 11:42:07 87° ENE 11:50:41 10° SSE
Abrixas rocket 1.2 11:40:45 10° NW 11:42:52 77° NNE 11:45:00 10° ESE
